sat.trackr.live / text

‹ back to catalog

STARLINK-34155

NORAD 64019 · 2025-101AB

PAYLOAD ACTIVE UNKNOWN

§ Identity

Operator
Country
US
Launch date
2025-05-14
Launch site
AFETR
Launch vehicle
Mass (kg)
RCS (m²)

Purposes: comms

External: N2YO · Heavens-Above · Gunter

§ Orbital elements

Epoch: 2026-05-24T20:44:56.140224Z

Period
94.26 min
Inclination
42.9986°
Eccentricity
0.0001601
Mean motion
15.27623201 rev/d
Perigee alt
481.8 km
Apogee alt
484.0 km
Semi-major
6,861.1 km
B*
9.3848e-4
RAAN
287.8923°
Arg perigee
243.8974°
Mean anomaly
116.1712°
Rev number
5,870

§ Raw data

STARLINK-341551 64019U 25101AB  26144.86453866  .00025687  00000+0  93848-3 0  99942 64019  42.9986 287.8923 0001601 243.8974 116.1712 15.27623201 58702

JSON: /api/v1/satellites/64019 · /tle

For live sub-satellite position, see the globe view (requires WebGL).

§ Visibility from observer

Set your observer location to see the next 7 days of passes ≥ 10°. The values pass through the URL so the page stays shareable.

No JS? Fill the form by hand. The geolocation button needs JavaScript.